Time,TemperatureF,DewpointF,PressureIn,WindDirection,WindDirectionDegrees,WindSpeedMPH,WindSpeedGustMPH,Humidity,HourlyPrecipIn,Conditions,Clouds,dailyrainin,SolarRadiationWatts/m^2,SoftwareType,DateUTC
2013-05-23 00:02:00,74.0,70.0,-100.00,East,96,1.0,4.0,88,0.00,,,0.02,0.000000,,2013-05-23 10:02:00,
2013-05-23 00:12:00,74.0,70.0,-100.00,East,96,1.0,4.0,88,0.00,,,0.02,0.000000,,2013-05-23 10:12:00,
2013-05-23 00:42:00,72.0,68.0,-100.00,East,80,2.0,6.0,86,0.00,,,0.02,0.000000,,2013-05-23 10:42:00,
2013-05-23 00:52:00,72.0,68.0,-100.00,East,80,2.0,6.0,86,0.00,,,0.02,0.000000,,2013-05-23 10:52:00,
2013-05-23 01:02:00,72.0,68.0,-100.00,East,80,2.0,6.0,86,0.00,,,0.02,0.000000,,2013-05-23 11:02:00,
2013-05-23 01:11:00,72.0,68.0,-100.00,East,80,2.0,6.0,86,0.00,,,0.02,0.000000,,2013-05-23 11:11:00,
2013-05-23 01:21:00,72.0,68.0,-100.00,East,80,2.0,6.0,86,0.00,,,0.02,0.000000,,2013-05-23 11:21:00,
2013-05-23 01:42:00,72.0,66.0,-100.00,East,80,3.0,6.0,82,0.00,,,0.02,0.000000,,2013-05-23 11:42:00,
2013-05-23 01:52:00,72.0,66.0,-100.00,East,80,3.0,6.0,82,0.00,,,0.02,0.000000,,2013-05-23 11:52:00,
2013-05-23 02:01:00,72.0,66.0,-100.00,East,80,3.0,6.0,82,0.00,,,0.02,0.000000,,2013-05-23 12:01:00,
2013-05-23 02:11:00,72.0,66.0,-100.00,East,80,3.0,6.0,82,0.00,,,0.02,0.000000,,2013-05-23 12:11:00,
2013-05-23 02:21:00,72.0,66.0,-100.00,East,80,3.0,6.0,82,0.00,,,0.02,0.000000,,2013-05-23 12:21:00,
2013-05-23 02:42:00,71.0,64.0,-100.00,East,81,3.0,6.0,79,0.00,,,0.02,0.000000,,2013-05-23 12:42:00,
2013-05-23 02:52:00,71.0,64.0,-100.00,East,81,3.0,6.0,79,0.00,,,0.02,0.000000,,2013-05-23 12:52:00,
2013-05-23 03:01:00,71.0,64.0,-100.00,East,81,3.0,6.0,79,0.00,,,0.02,0.000000,,2013-05-23 13:01:00,
2013-05-23 03:11:00,71.0,64.0,-100.00,East,81,3.0,6.0,79,0.00,,,0.02,0.000000,,2013-05-23 13:11:00,
2013-05-23 03:21:00,71.0,64.0,-100.00,East,81,3.0,6.0,79,0.00,,,0.02,0.000000,,2013-05-23 13:21:00,
2013-05-23 03:42:00,71.0,64.0,-100.00,ENE,73,3.0,7.0,79,0.00,,,0.02,0.000000,,2013-05-23 13:42:00,
2013-05-23 03:52:00,71.0,64.0,-100.00,ENE,73,3.0,7.0,79,0.00,,,0.02,0.000000,,2013-05-23 13:52:00,
2013-05-23 04:01:00,71.0,64.0,-100.00,ENE,73,3.0,7.0,79,0.00,,,0.02,0.000000,,2013-05-23 14:01:00,
2013-05-23 04:11:00,71.0,64.0,-100.00,ENE,73,3.0,7.0,79,0.00,,,0.02,0.000000,,2013-05-23 14:11:00,
2013-05-23 04:21:00,71.0,64.0,-100.00,ENE,73,3.0,7.0,79,0.00,,,0.02,0.000000,,2013-05-23 14:21:00,
2013-05-23 04:42:00,71.0,64.0,-100.00,East,81,3.0,6.0,78,0.00,,,0.02,0.000000,,2013-05-23 14:42:00,
2013-05-23 04:52:00,71.0,64.0,-100.00,East,81,3.0,6.0,78,0.00,,,0.02,0.000000,,2013-05-23 14:52:00,
2013-05-23 05:01:00,71.0,64.0,-100.00,East,81,3.0,6.0,78,0.00,,,0.02,0.000000,,2013-05-23 15:01:00,
2013-05-23 05:11:00,71.0,64.0,-100.00,East,81,3.0,6.0,78,0.00,,,0.02,0.000000,,2013-05-23 15:11:00,
2013-05-23 05:21:00,71.0,64.0,-100.00,East,81,3.0,6.0,78,0.00,,,0.02,0.000000,,2013-05-23 15:21:00,
2013-05-23 05:22:00,71.0,63.0,-100.00,East,84,3.0,7.0,76,0.00,,,0.02,0.000000,,2013-05-23 15:22:00,
2013-05-23 05:43:00,71.0,63.0,-100.00,East,84,3.0,7.0,76,0.00,,,0.02,0.000000,,2013-05-23 15:43:00,
2013-05-23 05:53:00,71.0,63.0,-100.00,East,84,3.0,7.0,76,0.00,,,0.02,0.000000,,2013-05-23 15:53:00,
2013-05-23 06:03:00,71.0,63.0,-100.00,East,84,3.0,7.0,76,0.00,,,0.02,0.000000,,2013-05-23 16:03:00,
2013-05-23 06:12:00,71.0,63.0,-100.00,East,84,3.0,7.0,76,0.00,,,0.02,0.000000,,2013-05-23 16:12:00,
2013-05-23 06:22:00,71.0,60.0,-100.00,ENE,74,4.0,8.0,69,0.00,,,0.02,2.000000,,2013-05-23 16:22:00,
2013-05-23 06:43:00,71.0,60.0,-100.00,ENE,74,4.0,8.0,69,0.00,,,0.02,2.000000,,2013-05-23 16:43:00,
2013-05-23 06:52:00,71.0,60.0,-100.00,ENE,74,4.0,8.0,69,0.00,,,0.02,2.000000,,2013-05-23 16:52:00,
2013-05-23 07:03:00,71.0,60.0,-100.00,ENE,74,4.0,8.0,69,0.00,,,0.02,2.000000,,2013-05-23 17:03:00,
2013-05-23 07:11:00,71.0,60.0,-100.00,ENE,74,4.0,8.0,69,0.00,,,0.02,2.000000,,2013-05-23 17:11:00,
2013-05-23 07:43:00,72.0,58.0,-100.00,East,82,3.0,7.0,61,0.00,,,0.02,88.000000,,2013-05-23 17:43:00,
2013-05-23 07:52:00,72.0,58.0,-100.00,East,82,3.0,7.0,61,0.00,,,0.02,88.000000,,2013-05-23 17:52:00,
2013-05-23 08:01:00,72.0,58.0,-100.00,East,82,3.0,7.0,61,0.00,,,0.02,88.000000,,2013-05-23 18:01:00,
2013-05-23 08:11:00,72.0,58.0,-100.00,East,82,3.0,7.0,61,0.00,,,0.02,88.000000,,2013-05-23 18:11:00,
2013-05-23 08:21:00,72.0,58.0,-100.00,East,82,3.0,7.0,61,0.00,,,0.02,88.000000,,2013-05-23 18:21:00,
2013-05-23 08:42:00,79.0,62.0,-100.00,ENE,73,2.0,7.0,56,0.00,,,0.02,293.000000,,2013-05-23 18:42:00,
2013-05-23 08:52:00,79.0,62.0,-100.00,ENE,73,2.0,7.0,56,0.00,,,0.02,293.000000,,2013-05-23 18:52:00,
2013-05-23 09:01:00,79.0,62.0,-100.00,ENE,73,2.0,7.0,56,0.00,,,0.02,293.000000,,2013-05-23 19:01:00,
2013-05-23 09:11:00,79.0,62.0,-100.00,ENE,73,2.0,7.0,56,0.00,,,0.02,293.000000,,2013-05-23 19:11:00,
2013-05-23 09:21:00,79.0,62.0,-100.00,ENE,73,2.0,7.0,56,0.00,,,0.02,293.000000,,2013-05-23 19:21:00,
2013-05-23 09:42:00,81.0,69.0,-100.00,West,273,2.0,5.0,67,0.00,,,0.02,330.000000,,2013-05-23 19:42:00,
2013-05-23 09:52:00,81.0,69.0,-100.00,West,273,2.0,5.0,67,0.00,,,0.02,330.000000,,2013-05-23 19:52:00,
2013-05-23 10:02:00,81.0,69.0,-100.00,West,273,2.0,5.0,67,0.00,,,0.02,330.000000,,2013-05-23 20:02:00,
2013-05-23 10:11:00,81.0,69.0,-100.00,West,273,2.0,5.0,67,0.00,,,0.02,330.000000,,2013-05-23 20:11:00,
2013-05-23 10:21:00,81.0,69.0,-100.00,West,273,2.0,5.0,67,0.00,,,0.02,330.000000,,2013-05-23 20:21:00,
2013-05-23 10:42:00,81.0,66.0,-100.00,SW,234,3.0,8.0,60,0.00,,,0.02,603.000000,,2013-05-23 20:42:00,
2013-05-23 10:52:00,81.0,66.0,-100.00,SW,234,3.0,8.0,60,0.00,,,0.02,603.000000,,2013-05-23 20:52:00,
2013-05-23 11:01:00,81.0,66.0,-100.00,SW,234,3.0,8.0,60,0.00,,,0.02,603.000000,,2013-05-23 21:01:00,
2013-05-23 11:11:00,81.0,66.0,-100.00,SW,234,3.0,8.0,60,0.00,,,0.02,603.000000,,2013-05-23 21:11:00,
2013-05-23 11:21:00,81.0,66.0,-100.00,SW,234,3.0,8.0,60,0.00,,,0.02,603.000000,,2013-05-23 21:21:00,
2013-05-23 11:22:00,82.0,69.0,-100.00,SW,229,4.0,9.0,64,0.00,,,0.02,841.000000,,2013-05-23 21:22:00,
2013-05-23 11:43:00,82.0,69.0,-100.00,SW,229,4.0,9.0,64,0.00,,,0.02,841.000000,,2013-05-23 21:43:00,
2013-05-23 11:53:00,82.0,69.0,-100.00,SW,229,4.0,9.0,64,0.00,,,0.02,841.000000,,2013-05-23 21:53:00,
2013-05-23 12:02:00,82.0,69.0,-100.00,SW,229,4.0,9.0,64,0.00,,,0.02,841.000000,,2013-05-23 22:02:00,
2013-05-23 12:12:00,82.0,69.0,-100.00,SW,229,4.0,9.0,64,0.00,,,0.02,841.000000,,2013-05-23 22:12:00,
2013-05-23 12:42:00,83.0,69.0,-100.00,WSW,240,5.0,10.0,62,0.00,,,0.02,946.000000,,2013-05-23 22:42:00,
2013-05-23 12:52:00,83.0,69.0,-100.00,WSW,240,5.0,10.0,62,0.00,,,0.02,946.000000,,2013-05-23 22:52:00,
2013-05-23 13:01:00,83.0,69.0,-100.00,WSW,240,5.0,10.0,62,0.00,,,0.02,946.000000,,2013-05-23 23:01:00,
2013-05-23 13:11:00,83.0,69.0,-100.00,WSW,240,5.0,10.0,62,0.00,,,0.02,946.000000,,2013-05-23 23:11:00,
2013-05-23 13:21:00,83.0,69.0,-100.00,WSW,240,5.0,10.0,62,0.00,,,0.02,946.000000,,2013-05-23 23:21:00,
2013-05-23 13:42:00,82.0,69.0,-100.00,WSW,247,4.0,9.0,64,0.00,,,0.02,465.000000,,2013-05-23 23:42:00,
2013-05-23 13:52:00,82.0,69.0,-100.00,WSW,247,4.0,9.0,64,0.00,,,0.02,465.000000,,2013-05-23 23:52:00,
2013-05-23 14:01:00,82.0,69.0,-100.00,WSW,247,4.0,9.0,64,0.00,,,0.02,465.000000,,2013-05-24 00:01:00,
2013-05-23 14:11:00,82.0,69.0,-100.00,WSW,247,4.0,9.0,64,0.00,,,0.02,465.000000,,2013-05-24 00:11:00,
2013-05-23 14:21:00,82.0,69.0,-100.00,WSW,247,4.0,9.0,64,0.00,,,0.02,465.000000,,2013-05-24 00:21:00,
2013-05-23 14:42:00,81.0,69.0,-100.00,WSW,255,4.0,9.0,67,0.00,,,0.02,257.000000,,2013-05-24 00:42:00,
2013-05-23 14:52:00,81.0,69.0,-100.00,WSW,255,4.0,9.0,67,0.00,,,0.02,257.000000,,2013-05-24 00:52:00,
2013-05-23 15:01:00,81.0,69.0,-100.00,WSW,255,4.0,9.0,67,0.00,,,0.02,257.000000,,2013-05-24 01:01:00,
2013-05-23 15:12:00,81.0,69.0,-100.00,WSW,255,4.0,9.0,67,0.00,,,0.02,257.000000,,2013-05-24 01:12:00,
2013-05-23 15:21:00,81.0,69.0,-100.00,WSW,255,4.0,9.0,67,0.00,,,0.02,257.000000,,2013-05-24 01:21:00,
2013-05-23 15:42:00,81.0,67.0,-100.00,WSW,253,4.0,10.0,63,0.00,,,0.02,247.000000,,2013-05-24 01:42:00,
2013-05-23 15:52:00,81.0,67.0,-100.00,WSW,253,4.0,10.0,63,0.00,,,0.02,247.000000,,2013-05-24 01:52:00,
2013-05-23 16:01:00,81.0,67.0,-100.00,WSW,253,4.0,10.0,63,0.00,,,0.02,247.000000,,2013-05-24 02:01:00,
2013-05-23 16:11:00,81.0,67.0,-100.00,WSW,253,4.0,10.0,63,0.00,,,0.02,247.000000,,2013-05-24 02:11:00,
2013-05-23 16:21:00,81.0,67.0,-100.00,WSW,253,4.0,10.0,63,0.00,,,0.02,247.000000,,2013-05-24 02:21:00,
2013-05-23 16:42:00,79.0,67.0,-100.00,WSW,254,3.0,7.0,67,0.00,,,0.02,85.000000,,2013-05-24 02:42:00,
2013-05-23 16:52:00,79.0,67.0,-100.00,WSW,254,3.0,7.0,67,0.00,,,0.02,85.000000,,2013-05-24 02:52:00,
2013-05-23 17:02:00,79.0,67.0,-100.00,WSW,254,3.0,7.0,67,0.00,,,0.02,85.000000,,2013-05-24 03:02:00,
2013-05-23 17:11:00,79.0,67.0,-100.00,WSW,254,3.0,7.0,67,0.00,,,0.02,85.000000,,2013-05-24 03:11:00,
2013-05-23 17:21:00,79.0,67.0,-100.00,WSW,254,3.0,7.0,67,0.00,,,0.02,85.000000,,2013-05-24 03:21:00,
2013-05-23 17:22:00,78.0,68.0,-100.00,NE,34,3.0,8.0,71,0.00,,,0.02,52.000000,,2013-05-24 03:22:00,
2013-05-23 17:42:00,78.0,68.0,-100.00,NE,34,3.0,8.0,71,0.00,,,0.02,52.000000,,2013-05-24 03:42:00,
2013-05-23 17:53:00,78.0,68.0,-100.00,NE,34,3.0,8.0,71,0.00,,,0.02,52.000000,,2013-05-24 03:53:00,
2013-05-23 18:03:00,78.0,68.0,-100.00,NE,34,3.0,8.0,71,0.00,,,0.02,52.000000,,2013-05-24 04:03:00,
2013-05-23 18:12:00,78.0,68.0,-100.00,NE,34,3.0,8.0,71,0.00,,,0.02,52.000000,,2013-05-24 04:12:00,
2013-05-23 18:22:00,78.0,67.0,-100.00,ENE,67,3.0,7.0,70,0.00,,,0.02,69.000000,,2013-05-24 04:22:00,
2013-05-23 18:42:00,78.0,67.0,-100.00,ENE,67,3.0,7.0,70,0.00,,,0.02,69.000000,,2013-05-24 04:42:00,
2013-05-23 18:53:00,78.0,67.0,-100.00,ENE,67,3.0,7.0,70,0.00,,,0.02,69.000000,,2013-05-24 04:53:00,
2013-05-23 19:02:00,78.0,67.0,-100.00,ENE,67,3.0,7.0,70,0.00,,,0.02,69.000000,,2013-05-24 05:02:00,
2013-05-23 19:12:00,78.0,67.0,-100.00,ENE,67,3.0,7.0,70,0.00,,,0.02,69.000000,,2013-05-24 05:12:00,
2013-05-23 19:42:00,78.0,68.0,-100.00,ENE,71,3.0,7.0,71,0.00,,,0.02,15.000000,,2013-05-24 05:42:00,
2013-05-23 19:52:00,78.0,68.0,-100.00,ENE,71,3.0,7.0,71,0.00,,,0.02,15.000000,,2013-05-24 05:52:00,
2013-05-23 20:01:00,78.0,68.0,-100.00,ENE,71,3.0,7.0,71,0.00,,,0.02,15.000000,,2013-05-24 06:01:00,
2013-05-23 20:11:00,78.0,68.0,-100.00,ENE,71,3.0,7.0,71,0.00,,,0.02,15.000000,,2013-05-24 06:11:00,
2013-05-23 20:21:00,78.0,68.0,-100.00,ENE,71,3.0,7.0,71,0.00,,,0.02,15.000000,,2013-05-24 06:21:00,
2013-05-23 20:42:00,77.0,68.0,-100.00,ENE,63,3.0,7.0,73,0.00,,,0.02,0.000000,,2013-05-24 06:42:00,
2013-05-23 20:52:00,77.0,68.0,-100.00,ENE,63,3.0,7.0,73,0.00,,,0.02,0.000000,,2013-05-24 06:52:00,
2013-05-23 21:01:00,77.0,68.0,-100.00,ENE,63,3.0,7.0,73,0.00,,,0.02,0.000000,,2013-05-24 07:01:00,
2013-05-23 21:11:00,77.0,68.0,-100.00,ENE,63,3.0,7.0,73,0.00,,,0.02,0.000000,,2013-05-24 07:11:00,
2013-05-23 21:21:00,77.0,68.0,-100.00,ENE,63,3.0,7.0,73,0.00,,,0.02,0.000000,,2013-05-24 07:21:00,
2013-05-23 21:22:00,75.0,66.0,-100.00,ENE,59,3.0,6.0,73,0.00,,,0.02,0.000000,,2013-05-24 07:22:00,
2013-05-23 21:42:00,75.0,66.0,-100.00,ENE,59,3.0,6.0,73,0.00,,,0.02,0.000000,,2013-05-24 07:42:00,
2013-05-23 21:52:00,75.0,66.0,-100.00,ENE,59,3.0,6.0,73,0.00,,,0.02,0.000000,,2013-05-24 07:52:00,
2013-05-23 22:02:00,75.0,66.0,-100.00,ENE,59,3.0,6.0,73,0.00,,,0.02,0.000000,,2013-05-24 08:02:00,
2013-05-23 22:11:00,75.0,66.0,-100.00,ENE,59,3.0,6.0,73,0.00,,,0.02,0.000000,,2013-05-24 08:11:00,
2013-05-23 22:42:00,74.0,65.0,-100.00,ENE,76,3.0,6.0,74,0.00,,,-99.99,0.000000,,2013-05-24 08:42:00,
2013-05-23 22:52:00,74.0,65.0,-100.00,ENE,76,3.0,6.0,74,0.00,,,-99.99,0.000000,,2013-05-24 08:52:00,
2013-05-23 23:01:00,74.0,65.0,-100.00,ENE,76,3.0,6.0,74,0.00,,,-99.99,0.000000,,2013-05-24 09:01:00,
2013-05-23 23:11:00,74.0,65.0,-100.00,ENE,76,3.0,6.0,74,0.00,,,-99.99,0.000000,,2013-05-24 09:11:00,
2013-05-23 23:21:00,74.0,65.0,-100.00,ENE,76,3.0,6.0,74,0.00,,,-99.99,0.000000,,2013-05-24 09:21:00,
2013-05-23 23:22:00,75.0,65.0,-100.00,ENE,73,3.0,6.0,70,0.00,,,0.00,0.000000,,2013-05-24 09:22:00,
2013-05-23 23:42:00,75.0,65.0,-100.00,ENE,73,3.0,6.0,70,0.00,,,0.00,0.000000,,2013-05-24 09:42:00,
2013-05-23 23:53:00,75.0,65.0,-100.00,ENE,73,3.0,6.0,70,0.00,,,0.00,0.000000,,2013-05-24 09:53:00,